www.pogodaiklimat.ru
ПОГОДА в Сангли Пойнт

Архив погоды в Сангли Пойнт (Филиппины)

Время
(UTC), дата
15 18.09
18 18.09
00 19.09
03 19.09
06 19.09
12 19.09
15 19.09
18 19.09
00 20.09
03 20.09
06 20.09
09 20.09
12 20.09
15 20.09
18 20.09
21 20.09
00 21.09
06 21.09
12 21.09
15 21.09
18 21.09
00 22.09
06 22.09
12 22.09
15 22.09
18 22.09
21 22.09
00 23.09
03 23.09
06 23.09
09 23.09
12 23.09
15 23.09
18 23.09
00 24.09
03 24.09
06 24.09
09 24.09
12 24.09
15 24.09
18 24.09
21 24.09
00 25.09
03 25.09
06 25.09
09 25.09
Ветер
(напр.,м/с)
Видим. Явления Облачность Т
(С)
Тd
(С)
f
(%)
Тe
(С)
Тes
(С)
Комфортность P
(гПа)
Po
(гПа)
Тmin
(С)
Tmax
(С)
R
(мм)
R24
(мм)
S
(см)
Ю 3 8000 м слаб. ливневой дождь {гроза} 9/3 500 м
[Cb cap Ac As]
+25.8 +24.0 90 +36 +36 очень
душно
1010.3 1010.0 5
Ю 2 8000 м в посл. час дождь {гроза, ливн. дождь} 9/3 540 м
[Sc diur, vesp Ac As]
+25.6 +24.1 91 +35 +35 очень
душно
1008.0 1007.7 11
В 2 10 км в посл. час дождь 9/3 540 м
[Sc diur, vesp Ac As]
+26.6 +24.9 90 +38 +39 очень
душно
1009.4 1009.1 +25.2 15 15.2
ЮЗ 3 10 км слаб. ливневой дождь 9/3 500 м
[Cb cap Ac As]
+27.0 +24.9 88 +39 +43 очень
душно
1009.4 1009.1 5
ЮЗ 5
{10}
10 км слаб. ливневой дождь {гроза} 9/3 500 м
[Cb cap Ac As]
+26.2 +24.7 91 +37 +39 очень
душно
1007.2 1006.9 24
ЮЗ 3 8000 м слаб. дождь {гроза, ливн. дождь} 9/3 540 м
[Sc diur, vesp Ac As]
+25.2 +24.1 94 +35 +35 очень
душно
1009.2 1008.9 +27.3 16
Ю 3 8000 м слаб. дождь 9/3 540 м
[Sc diur, vesp Ac As]
+25.1 +24.2 95 +35 +35 очень
душно
1009.4 1009.1 3
ЮЗ 2 8000 м в посл. час дождь 8/3 540 м
[Sc diur, vesp Ac As]
+25.0 +23.8 93 +34 +34 очень
душно
1007.8 1007.5 3
ЮЗ 3 10 км слаб. дождь 9/3 540 м
[Sc diur, vesp Ac As]
+26.1 +24.9 93 +37 +38 очень
душно
1009.1 1008.8 +25.0 49 49.0
ЮЗ 3 10 км {гроза, ливн. дождь} 8/3 540 м
[Sc diur, vesp Ac As]
+26.3 +24.8 91 +37 +43 очень
душно
1009.2 1008.9 7
Ю 2 10 км мгла {гроза, ливн. дождь} 8/3 540 м
[Sc diur, vesp Ac As]
+27.2 +24.7 86 +39 +44 очень
душно
1007.8 1007.5 7
Ю 3 10 км в посл. час дождь {мгла} 8/8 540 м +25.4 +24.1 93 +35 +35 очень
душно
1007.7 1007.4 1
ЮЗ 2 8000 м {дождь, мгла} 8/3 540 м
[Sc diur, vesp Ac As]
+25.3 +23.8 91 +34 +34 очень
душно
1009.7 1009.4 +27.2 1
ЮВ 2 8000 м 6/3 540 м
[Sc diur, vesp Ac As]
+25.2 +23.8 92 +34 +34 очень
душно
1010.4 1010.1
Ю 2 8000 м 5/3 540 м
[Sc diur, vesp Ac cuf Ci fib]
+25.1 +23.9 93 +34 +34 очень
душно
1008.9 1008.6
ЮВ 3 8000 м 5/3 300 м
[Sc diur, vesp Ac cuf Ci fib]
+24.7 +23.5 93 +33 +33 очень
душно
1008.7 1008.4
ЮВ 3 10 км мгла 6/3 540 м
[Sc diur, vesp Ac cuf Ci fib]
+27.8 +24.4 82 +39 +42 очень
душно
1010.4 1010.1 +24.6 8 8.0
ЮЗ 5 12 км мгла 8/3 540 м
[Cu med, cong Ac trans]
+31.4 +26.2 74 +47 +51 опасность
перегрева
1008.0 1007.7
ЮЗ 3 8000 м 8/3 540 м
[Sc diur, vesp Ac As]
+27.8 +24.6 83 +39 +39 очень
душно
1010.0 1009.7 +31.9
ЮЗ 4 8000 м 8/3 540 м
[Sc diur, vesp Ac As]
+26.4 +23.6 85 +36 +36 очень
душно
1011.1 1010.8
ЮЗ 3 8000 м {дождь} 8/3 540 м
[Cu med, cong Ac As]
+26.3 +23.7 86 +36 +36 очень
душно
1009.5 1009.2 0.8
С 2 10 км мгла 9/3 540 м
[Cu med, cong Ac As]
+28.0 +24.3 80 +39 +41 очень
душно
1010.5 1010.2 +26.3 0.8 0.8
ЮЗ 5 10 км мгла {гроза, дождь} 9/3 540 м
[Cu med, cong Ac As]
+28.4 +25.2 83 +41 +44 опасность
перегрева
1007.7 1007.4 21
ЮЗ 2 8000 м 6/3 540 м
[Sc diur, vesp Ac trans]
+27.6 +24.8 85 +39 +39 очень
душно
1009.6 1009.3 +29.2
ЮЗ 2 8000 м 6/3 540 м
[Cu med, cong Ac trans]
+26.8 +24.4 87 +38 +38 очень
душно
1010.0 1009.7
Ю 1 8000 м 4/3 540 м
[Cu med, cong Ac trans]
+26.5 +24.2 87 +37 +37 очень
душно
1008.3 1008.0
СЗ 1 8000 м 8/3 540 м
[Cu med, cong Ac cuf]
+26.6 +24.3 87 +37 +37 очень
душно
1008.1 1007.8
ЮВ 1 10 км мгла 8/3 540 м
[Cu med, cong Ac As]
+28.0 +25.0 84 +40 +43 очень
душно
1009.4 1009.1 +25.0 21 20.9
З 2 10 км мгла 8/3 540 м
[Cu med, cong Ac trans]
+30.8 +25.6 74 +45 +53 опасность
перегрева
1009.4 1009.1
ЮЗ 5 10 км мгла 10/3 540 м
[Cu med, cong Ac As]
+28.8 +25.4 82 +42 +44 опасность
перегрева
1006.9 1006.6
ЮЗ 5 10 км мгла 10/3 540 м
[Cu med, cong Ac As]
+28.3 +24.6 80 +40 +40 очень
душно
1007.4 1007.1
Ю 1 8000 м 9/3 540 м
[Sc diur, vesp Ac As]
+27.6 +24.7 84 +39 +39 очень
душно
1008.3 1008.0 +30.9
Ю 1 8000 м в посл. час гроза {дождь} 10/3 500 м
[Cb cap As trans]
+25.8 +24.0 90 +36 +36 очень
душно
1009.0 1008.7 19
Ю 1 8000 м {дождь} 9/3 540 м
[Sc diur, vesp Ac As]
+25.2 +23.6 91 +34 +34 очень
душно
1006.9 1006.6 19
СЗ 1 10 км мгла 8/3 540 м
[Sc diur, vesp Ac trans Ci fib]
+27.4 +24.6 85 +39 +42 очень
душно
1007.7 1007.4 +25.1 19 19.0
СЗ 2 10 км мгла 8/3 540 м
[Sc diur, vesp Ac cuf]
+29.6 +25.3 78 +43 +50 опасность
перегрева
1007.3 1007.0
З 2 10 км мгла 9/3 540 м
[Cu med, cong Ac As]
+30.8 +25.9 75 +46 +50 опасность
перегрева
1004.7 1004.4
ЮЗ 3 10 км мгла 10/3 540 м
[Cu med, cong As trans]
+30.2 +25.4 76 +44 +45 опасность
перегрева
1004.0 1003.7
ЮЗ 3 8000 м 8/3 540 м
[Sc diur, vesp Ac cuf]
+28.4 +24.6 80 +40 +40 очень
душно
1005.5 1005.2 +31.2
Ю 1 8000 м 8/3 540 м
[Sc diur, vesp Ac As]
+27.8 +24.6 83 +39 +39 очень
душно
1006.3 1006.0
СЗ 2 8000 м 9/3 540 м
[Cu med, cong Ac As]
+28.0 +24.7 82 +40 +40 очень
душно
1004.1 1003.8
СЗ 2 8000 м {дождь} 10/3 540 м
[Cu med, cong Ac As]
+27.3 +24.6 85 +39 +39 очень
душно
1004.1 1003.8 0.5
СЗ 1 9000 м мгла {дождь} 10/3 540 м
[Cu med, cong As trans]
+27.6 +25.0 86 +40 +42 очень
душно
1005.6 1005.3 +27.3 0.5 0.5
З 2 10 км мгла 10/3 540 м
[Cu med, cong As trans]
+29.0 +25.6 82 +43 +48 опасность
перегрева
1004.5 1004.2
ЮЗ 5 8000 м слаб. дождь {мгла} 10/3 540 м
[Cu med, cong As trans]
+27.3 +24.8 86 +39 +41 очень
душно
1001.7 1001.4 1
ЮЗ 7
{14}
8000 м слаб. дождь 10/3 540 м
[Cu med, cong As trans]
+27.4 +25.0 87 +39 +40 очень
душно
1000.4 1000.1 2
Местоположение метеостанции Сангли Пойнт (Филиппины): широта 14.50 долгота 120.91 высота над уровнем моря 2 м.
В архиве по умолчанию представлена погода в Сангли Пойнт за последнюю неделю. Архивные данные за месяц целиком и за предыдущие месяцы, начиная с января 2011 года, Вы можете получить, выбрав интересующий диапазон дат из раскрывающегося списка и нажав кнопку "Найти!".
*Определитесь, кто Вы:
Внимание! Время в таблицах - всемирное. Для получения местного времени необходимо прибавить поправку, которая равна 8 ч.
Смотрите также архив погоды в соседних городах и на ближайших метеорологических станциях:
Партнеры нашего сайта:      
Пояснения к столбцам:
  • Ветер - указаны скорость ветра в м/с - средняя за 10 мин, порывы в срок и между сроками (в фигурных скобках) и направление, откуда дует ветер: С - северный,
  • СВ - северо-восточный, В - восточный, ЮВ - юго-восточный, Ю - южный, ЮЗ - юго-западный, З - западный, СЗ - северо-западный.
  • Видимость - горизонтальная дальность видимости в метрах или километрах. При видимости от 1 до 10 км при отсутствии осадков обычно наблюдается дымка, при ухудшении видимости до 1 км и менее - туман. В сухую погоду видимость может ухудшаться дымом, пылью или мглою.
  • Явления - указаны атмосферные явления, наблюдавшиеся в срок или в последний час перед сроком; фигурными скобками обозначены явления, наблюдавшиеся между сроками (за 1-3 часа до срока); квадратными скобками обозначены град или гололедные отложения с указанием их диаметра в мм.
  • Облачность - указаны через наклонную черту общая и нижняя облачность в баллах и высота нижней границы облаков в метрах; квадратными скобками обозначены формы облаков: Ci - перистые, Cs - перисто-слоистые, Cc - перисто-кучевые, Ac - высококучевые, As - высокослоистые, Sc - слоисто-кучевые, Ns - слоисто-дождевые, Cu - кучевые, Cb - кучево-дождевые. Подробнее классификацию облаков см. в Атласе облаков (PDF).
  • T - Температура воздуха - температура, измеренная на высоте 2 м над землей.
  • Td - Температура точки росы - температура, при понижении до которой содержащийся в воздухе водяной пар достигнет насыщения.
  • f - Относительная влажность воздуха - влажноcть воздуха, измеренная на высоте 2 м над землей.
  • Te - Эффективная температура - температура, которую ощущает одетый по сезону человек в тени. Характеристика душности погоды. При расчете учитывается влияние влажности воздуха и скорости ветра на теплоощущения человека.
  • Tes - Эффективная температура на солнце - температура, которую ощущает человек, с поправкой на солнечный нагрев. Характеристика знойности погоды. Зависит от высоты солнца над горизонтом, облачности и скорости ветра. Ночью, в пасмурную погоду, а также при ветре 12 м/с и более поправка равна нулю.
  • P - Атмосферное давление - приведенное к уровню моря атмосферное давление.
  • Po - Атмосферное давление - измеренное на уровне метеостанции атмосферное давление.
  • Tmin - Минимальная температура - минимум температуры воздуха на высоте 2 м над землей.
  • Tmax - Максимальная температура - максимум температуры воздуха на высоте 2 м над землей.
  • R - Количество осадков - Количество выпавших осадков за период времени, мм. При наведении курсора мыши на число - период времени, за который выпало указанное количество осадков.
  • R24 - Количество осадков - Количество выпавших осадков за 24 часа, мм.
  • S - Снежный покров - Высота снежного покрова, см. При наведении курсора мыши на число - состояние снежного покрова и степень покрытия местности в баллах.